Location: Igri�s
(42.2144°N, 0.4320°W)
Time: 18:55:00
(UTC+00:00)

MOS 1-B Rocket - Pass Details

Date: 13 August 2020
Orbit: 890 x 1606 km, 99.1° (Epoch: 20 September)

Event Time Altitude Azimuth Distance (km) Brightness Sun altitude
Rises 22:21:36 0° 16° (NNE) 3,530 7.5 -28.6°
Reaches altitude 10° 22:24:01 10° 20° (NNE) 2,569 6.7 -28.8°
Enters shadow 22:28:42 58° 56° (NE) 1,044 4.1 -29.2°
